Location: Unspecified
(0.0000°N, 0.0000°E)
Time: 19:08:22
(UTC+00:00)

Vanguard 1 Rocket - Pass Details

Date: 28 November 2019
Orbit: 650 x 4226 km, 34.3° (Epoch: 05 December)

Event Time Altitude Azimuth Distance (km) Brightness Sun altitude
Rises 10:30:08 0° 279° (W) 4,442 10.7 61.5°
Reaches altitude 10° 10:32:48 10° 271° (W) 3,811 10.5 61.9°
Maximum altitude 10:42:35 40° 205° (SSW) 3,217 11.1 63.4°
Drops below altitude 10° 11:00:22 10° 142° (SE) 6,709 12.3 65.8°
Sets 11:07:18 0° 135° (SE) 8,142 12.6 66.5°
